Location: M�t�o Espelette
(43.3451°N, 1.4613°W)
Time: 04:26:59
(UTC+02:00)

ISS - Visible Passes

Search period start: 28 April 2017 00:00
Search period end: 08 May 2017 00:00
Orbit: 401 x 409 km, 51.6° (Epoch: 28 April)

Date Brightness Start Highest point End Pass type
(mag) Time Alt. Az. Time Alt. Az. Time Alt. Az.
05 May -1.1 05:35:20 10° SSE 05:36:22 11° SE 05:37:24 10° ESE visible
06 May -3.1 06:17:06 10° SW 06:20:15 46° SE 06:23:24 10° ENE visible
07 May -2.2 05:26:30 17° S 05:28:13 25° SE 05:30:58 10° E visible
